Showing default

FIRESAT0, 63256

Orbit data source: Space-Track

FIRESAT0, 63256 is a payload satellite owned by Muon Space (US) in SSO that was launched on Sat, 15 Mar 2025 UTC via an FALCON 9 launch vehicle from the Air Force Western Test Range (AFWTR). Payload-class satellites include a variety of spacecraft equipped with specific instruments for various scientific and technological missions. These include communications satellites like Starlink; space stations such as the ISS; scientific satellites like the Hubble; Earth observation satellites from companies like Planet Labs, Umbra, and HawkEye 360; GPS; miniature CubeSats for education and research; and military/defense satellites.

Loading next visibility...
Identifier
63256, 2025-052AY
Orbit
SSO
Country
Flag of USUS
Related business
Manufacturer
Muon Space
Mission
Operational Commercial Imaging
Bus & Motor
MUON, Unknown motor
Mass
135 kg wet, 132 kg dry
Launch date (UTC)
2025-03-15 (7 months ago)
Launch vehicle
FALCON 9
Launch site
Air Force Western Test Range (AFWTR)
Object type
Payload
Rocket body
Debris
Shape & HBR
Box + 2 Pan, 1.7 m
Radar Cross Section
2.173 m², Large (>1 m²)

Expand to show TLE details & history
Last TLE update: 6 hours ago

TLE from 6 hours ago
0 FIRESAT0
1 63256U 25052AY  25287.95947685  .00002017  00000-0  19880-3 0  9992
2 63256  97.7112 179.1793 0001354  72.4969 287.6398 14.93116780 32006
Epoch: 2025-10-14T23:01Z
TLE epoch observation values (Epoch: 2025-10-14T23:01:38.799Z)
Latitude
-0.0001°
Longitude
170.02723°
Altitude
590.983 km
Speed
7.565 km/s
True Right ascension
11h 56m 43s
True Declination
0° 00' 00"
Sunlit
Object was in daylight at epoch
Visualization orbit readout
Latitude
Unknown
Longitude
Unknown
Altitude
Unknown
Speed
Unknown
Apparent Right ascension
Unknown
Apparent Declination
Unknown
Sunlit
N/A
Visualization observer readout
Local Sidereal Time
23:24:23
Azimuth
Unknown
Elevation
Unknown
Doppler factor
Unknown
Orbital elements
Apogee altitude
586.182 km
Perigee altitude
584.296 km
Semi-major axis
6,963.376 km
Eccentricity
0.00014
Inclination
97.7112°
RAAN
179.1793°
Arg. of periapsis
72.4969°
True anomaly
287.62501°
Mean anomaly
287.6398°
Eccentric anomaly
287.63241°
Mean motion
3.7352 °/min
Orbital period
96.38 mins
BSTAR
0.0001988
Loading maneuver chart data...
Computing Atmospheric mass density...
Loading historical data...
Loading historical data...
Loading historical data...
Loading historical data...
Loading historical data...
Loading historical data...
Loading historical data...

Documentation

Showing up to 5 results
|